• In Hungary
  • List of Countries
  • For 7 days
  • Water Temperature
  • Satellite Maps
  • Weather Map
  • News
  • Weather Widgets
  • user-avatar
    Login

    Hourly Weather Lezhe

    Today, 24 November, Friday

    Time Temperature Precipitation Wind Pressure Humidity
    00:00 +9°C° 0 mm 1 mps 741 mmHg 72%
    01:00 +8°C° 0 mm 1 mps 741 mmHg 71%
    02:00 +8°C° 0 mm 1 mps 741 mmHg 72%
    03:00 +8°C° 0 mm 1 mps 741 mmHg 72%
    04:00 +8°C° 0 mm 1 mps 741 mmHg 73%
    05:00 +8°C° 0 mm 1 mps 741 mmHg 74%
    06:00 +8°C° 0 mm 1 mps 741 mmHg 74%
    07:00 +8°C° 0 mm 1 mps 741 mmHg 75%
    08:00 +10°C° 0 mm 1 mps 741 mmHg 71%
    09:00 +12°C° 0 mm 1 mps 741 mmHg 66%
    10:00 +13°C° 0 mm 1 mps 741 mmHg 62%
    11:00 +14°C° 0 mm 1 mps 741 mmHg 61%
    12:00 +14°C° 0 mm 1 mps 741 mmHg 61%
    13:00 +15°C° 0 mm 1 mps 740 mmHg 61%
    14:00 +14°C° 0 mm 1 mps 740 mmHg 67%
    15:00 +12°C° 0 mm 1 mps 740 mmHg 74%
    16:00 +11°C° 0 mm 1 mps 740 mmHg 81%
    17:00 +11°C° 0 mm 1 mps 741 mmHg 83%
    18:00 +10°C° 0 mm 1 mps 741 mmHg 85%
    19:00 +9°C° 0 mm 1 mps 741 mmHg 88%
    20:00 +9°C° 0 mm 1 mps 741 mmHg 87%
    21:00 +9°C° 0 mm 1 mps 741 mmHg 87%
    22:00 +9°C° 0 mm 1 mps 741 mmHg 86%
    23:00 +9°C° 0 mm 1 mps 741 mmHg 85%

    Tomorrow, 25 November, Saturday

    Time Temperature Precipitation Wind Pressure Humidity
    00:00 +9°C° 0 mm 1 mps 741 mmHg 84%
    01:00 +9°C° 0 mm 1 mps 741 mmHg 83%
    02:00 +8°C° 0 mm 1 mps 741 mmHg 83%
    03:00 +8°C° 0 mm 1 mps 741 mmHg 83%
    04:00 +8°C° 0 mm 1 mps 740 mmHg 82%
    05:00 +8°C° 0 mm 1 mps 740 mmHg 82%
    06:00 +8°C° 0 mm 1 mps 740 mmHg 81%
    07:00 +8°C° 0 mm 1 mps 740 mmHg 81%
    08:00 +10°C° 0 mm 1 mps 740 mmHg 75%
    09:00 +10°C° 0 mm 2 mps 740 mmHg 70%
    10:00 +13°C° 0 mm 2 mps 740 mmHg 65%
    11:00 +14°C° 0 mm 2 mps 740 mmHg 65%
    12:00 +14°C° 0 mm 2 mps 739 mmHg 66%
    13:00 +14°C° 0 mm 2 mps 739 mmHg 67%
    14:00 +13°C° 0 mm 2 mps 738 mmHg 73%
    15:00 +12°C° 0 mm 2 mps 738 mmHg 79%
    16:00 +11°C° 0 mm 1 mps 738 mmHg 85%
    17:00 +11°C° 0 mm 1 mps 738 mmHg 87%
    18:00 +9°C° 0 mm 2 mps 739 mmHg 89%
    19:00 +9°C° 0 mm 2 mps 739 mmHg 91%
    20:00 +9°C° 0 mm 2 mps 739 mmHg 91%
    21:00 +9°C° 0 mm 2 mps 739 mmHg 90%
    22:00 +8°C° 0 mm 2 mps 739 mmHg 90%
    23:00 +9°C° 0.1 mm 3 mps 739 mmHg 89%

    Day after tomorrow, 26 November, Sunday

    Time Temperature Precipitation Wind Pressure Humidity
    00:00 +9°C° 0.1 mm 3 mps 739 mmHg 87%
    01:00 +9°C° 0.1 mm 3 mps 739 mmHg 86%
    02:00 +9°C° 0.1 mm 3 mps 738 mmHg 85%
    03:00 +9°C° 0.1 mm 3 mps 738 mmHg 84%
    04:00 +9°C° 0.1 mm 3 mps 738 mmHg 83%
    05:00 +9°C° 0.1 mm 3 mps 738 mmHg 83%
    06:00 +9°C° 0.1 mm 3 mps 737 mmHg 83%
    07:00 +9°C° 0.1 mm 3 mps 737 mmHg 82%
    08:00 +10°C° 0.3 mm 3 mps 737 mmHg 81%
    09:00 +11°C° 0.3 mm 4 mps 737 mmHg 79%
    10:00 +12°C° 0.3 mm 4 mps 737 mmHg 77%
    11:00 +12°C° 0.3 mm 4 mps 736 mmHg 77%
    12:00 +13°C° 0.3 mm 4 mps 735 mmHg 77%
    13:00 +13°C° 0.3 mm 4 mps 735 mmHg 77%
    14:00 +13°C° 1.4 mm 4 mps 735 mmHg 80%
    15:00 +12°C° 1.4 mm 4 mps 734 mmHg 83%
    16:00 +12°C° 1.4 mm 4 mps 734 mmHg 86%
    17:00 +12°C° 1.8 mm 4 mps 734 mmHg 86%
    18:00 +12°C° 1.8 mm 4 mps 734 mmHg 87%
    19:00 +11°C° 1.8 mm 3 mps 734 mmHg 87%
    20:00 +11°C° 1.7 mm 3 mps 734 mmHg 89%
    21:00 +11°C° 1.7 mm 3 mps 734 mmHg 91%
    22:00 +11°C° 1.7 mm 3 mps 735 mmHg 93%
    23:00 +10°C° 0.7 mm 2 mps 734 mmHg 93%

    27 November, Monday

    Time Temperature Precipitation Wind Pressure Humidity
    00:00 +10°C° 0.7 mm 2 mps 734 mmHg 93%
    01:00 +10°C° 0.7 mm 2 mps 734 mmHg 93%
    02:00 +10°C° 0.6 mm 2 mps 734 mmHg 92%
    03:00 +9°C° 0.6 mm 3 mps 734 mmHg 90%
    04:00 +9°C° 0.6 mm 3 mps 734 mmHg 89%
    05:00 +8°C° 0.5 mm 3 mps 734 mmHg 86%
    06:00 +7°C° 0.5 mm 4 mps 735 mmHg 84%
    07:00 +7°C° 0.5 mm 4 mps 735 mmHg 81%
    08:00 +7°C° 0.3 mm 4 mps 735 mmHg 78%
    09:00 +7°C° 0.3 mm 5 mps 736 mmHg 76%
    10:00 +7°C° 0.3 mm 5 mps 736 mmHg 73%
    11:00 +7°C° 0.2 mm 5 mps 736 mmHg 72%
    12:00 +7°C° 0.2 mm 5 mps 736 mmHg 70%
    13:00 +8°C° 0.2 mm 5 mps 736 mmHg 68%
    14:00 +7°C° 0 mm 4 mps 736 mmHg 70%
    15:00 +6°C° 0 mm 4 mps 737 mmHg 72%
    16:00 +5°C° 0 mm 4 mps 737 mmHg 73%
    17:00 +5°C° 0 mm 4 mps 737 mmHg 74%
    18:00 +4°C° 0 mm 4 mps 737 mmHg 75%
    19:00 +3°C° 0 mm 4 mps 738 mmHg 76%
    20:00 +3°C° 0 mm 4 mps 738 mmHg 76%
    21:00 +1°C° 0 mm 4 mps 738 mmHg 76%
    22:00 +1°C° 0 mm 4 mps 738 mmHg 76%
    23:00 +1°C° 0 mm 4 mps 738 mmHg 75%

    28 November, Tuesday

    Time Temperature Precipitation Wind Pressure Humidity
    00:00 +1°C° 0 mm 4 mps 738 mmHg 74%
    01:00 0°C° 0 mm 4 mps 738 mmHg 73%
    02:00 +1°C° 0 mm 3 mps 738 mmHg 73%
    03:00 +1°C° 0 mm 3 mps 738 mmHg 72%
    04:00 +1°C° 0 mm 3 mps 738 mmHg 71%
    05:00 +1°C° 0 mm 3 mps 738 mmHg 70%
    06:00 +1°C° 0 mm 3 mps 738 mmHg 69%
    07:00 +1°C° 0 mm 3 mps 738 mmHg 68%
    08:00 +2°C° 0 mm 3 mps 738 mmHg 63%
    09:00 +4°C° 0 mm 3 mps 738 mmHg 57%
    10:00 +6°C° 0 mm 2 mps 738 mmHg 52%
    11:00 +7°C° 0 mm 2 mps 738 mmHg 50%
    12:00 +8°C° 0 mm 2 mps 738 mmHg 48%
    13:00 +8°C° 0 mm 2 mps 737 mmHg 46%
    14:00 +7°C° 0 mm 2 mps 737 mmHg 51%
    15:00 +6°C° 0 mm 2 mps 737 mmHg 56%
    16:00 +5°C° 0 mm 2 mps 737 mmHg 60%
    17:00 +5°C° 0 mm 2 mps 738 mmHg 62%
    18:00 +5°C° 0 mm 1 mps 738 mmHg 64%
    19:00 +5°C° 0 mm 1 mps 738 mmHg 65%
    20:00 +4°C° 0 mm 1 mps 738 mmHg 65%
    21:00 +4°C° 0 mm 1 mps 739 mmHg 64%
    22:00 +4°C° 0 mm 1 mps 739 mmHg 64%
    23:00 +4°C° 0 mm 1 mps 739 mmHg 63%

    29 November, Wednesday

    Time Temperature Precipitation Wind Pressure Humidity
    00:00 +4°C° 0 mm 1 mps 738 mmHg 62%
    01:00 +4°C° 0 mm 1 mps 738 mmHg 61%
    02:00 +4°C° 0 mm 1 mps 738 mmHg 60%
    03:00 +4°C° 0 mm 1 mps 738 mmHg 58%
    04:00 +4°C° 0 mm 1 mps 738 mmHg 57%
    05:00 +3°C° 0 mm 2 mps 738 mmHg 56%
    06:00 +3°C° 0 mm 2 mps 739 mmHg 55%
    07:00 +3°C° 0 mm 2 mps 739 mmHg 54%
    08:00 +4°C° 0 mm 2 mps 739 mmHg 52%
    09:00 +6°C° 0 mm 2 mps 739 mmHg 50%
    10:00 +8°C° 0 mm 2 mps 739 mmHg 48%
    11:00 +8°C° 0 mm 2 mps 739 mmHg 49%
    12:00 +9°C° 0 mm 2 mps 738 mmHg 51%
    13:00 +9°C° 0 mm 2 mps 738 mmHg 52%
    14:00 +8°C° 0 mm 2 mps 738 mmHg 58%
    15:00 +7°C° 0 mm 2 mps 738 mmHg 64%
    16:00 +6°C° 0 mm 2 mps 738 mmHg 69%
    17:00 +5°C° 0 mm 2 mps 738 mmHg 70%
    18:00 +5°C° 0 mm 2 mps 739 mmHg 71%
    19:00 +3°C° 0 mm 3 mps 739 mmHg 72%
    20:00 +3°C° 0 mm 3 mps 739 mmHg 71%
    21:00 +3°C° 0 mm 3 mps 739 mmHg 71%
    22:00 +3°C° 0 mm 3 mps 739 mmHg 70%
    23:00 +4°C° 0 mm 3 mps 739 mmHg 70%
    Show more